This is the latest recevied weather packets stored in our database for station/object SQ9RHX-13. If no packets are shown the sender has not sent any weather packets the latest 10 day(s).
| Time | Temp. | Humidity | Pressure | Rain* | Wind** | Luminosity | Snow |
|---|---|---|---|---|---|---|---|
| 1778217005 | 8.89° C | 84% | 1022 hPa | 0 mm | - | 29 W/m² | - |
| 1778216704 | 8.89° C | 83% | 1021.8 hPa | 0 mm | - | 29 W/m² | - |
| 1778216404 | 8.89° C | 83% | 1021.8 hPa | 0 mm | - | 28 W/m² | - |
| 1778216103 | 8.89° C | 83% | 1021.8 hPa | 0 mm | - | 26 W/m² | - |
| 1778215805 | 8.89° C | 83% | 1021.7 hPa | 0 mm | - | 22 W/m² | - |
| 1778215502 | 8.89° C | 83% | 1021.7 hPa | 0 mm | - | 19 W/m² | - |
| 1778215204 | 8.89° C | 84% | 1021.8 hPa | 0 mm | - | 17 W/m² | - |
| 1778214903 | 8.89° C | 84% | 1021.5 hPa | 0 mm | - | 16 W/m² | - |
| 1778214605 | 8.89° C | 84% | 1021.7 hPa | 0 mm | - | 15 W/m² | - |
| 1778214303 | 8.89° C | 84% | 1021.8 hPa | 0 mm | - | 16 W/m² | - |
| 1778214007 | 8.89° C | 85% | 1021.6 hPa | 0 mm | - | 13 W/m² | - |
| 1778213704 | 8.89° C | 84% | 1021.7 hPa | 0 mm | - | 11 W/m² | - |
| 1778213402 | 8.89° C | 85% | 1021.6 hPa | 0 mm | - | 9 W/m² | - |
| 1778213104 | 8.89° C | 86% | 1021.7 hPa | 0 mm | - | 7 W/m² | - |
| 1778212805 | 8.89° C | 87% | 1021.5 hPa | 0 mm | - | 8 W/m² | - |
| 1778212502 | 8.89° C | 87% | 1021.5 hPa | 0 mm | - | 5 W/m² | - |
| 1778212203 | 8.89° C | 87% | 1021.4 hPa | 0 mm | - | 4 W/m² | - |
| 1778211905 | 8.89° C | 88% | 1021.5 hPa | 0 mm | - | 4 W/m² | - |
| 1778211603 | 8.89° C | 89% | 1021.3 hPa | 0 mm | - | 3 W/m² | - |
| 1778211303 | 8.89° C | 90% | 1021.2 hPa | 0 mm | - | 2 W/m² | - |
| 1778211003 | 8.89° C | 90% | 1021.3 hPa | 0 mm | - | 1 W/m² | - |
| 1778210703 | 8.89° C | 90% | 1021.1 hPa | 0 mm | - | 1 W/m² | - |
| 1778210406 | 8.89° C | 90% | 1021.2 hPa | 0 mm | - | 1 W/m² | - |
| 1778210105 | 8.89° C | 91% | 1021.3 hPa | 0 mm | - | 0 W/m² | - |
| 1778209804 | 8.89° C | 91% | 1021.2 hPa | 0 mm | - | 0 W/m² | - |
* Rain latest hour (hover to see other rain measurements)
** Current wind speed in m/s (hover to see current wind gust speed)